Voltar ao catálogo

HULIANWANG DIGUI-131

AtivoComunicaçõesLEO
NORAD 67239·PAYLOAD·🇨🇳 China

Lançado Dec 25, 2025 de Wenchang Space Launch Site

Loading…

Próximas Passagens (próximas 24 horas)

TLE

AtualizadoSource: Space-Track

Época: Sep 14, 2026, 02:46 UTC

1 67239U 25311D   26257.11590550 -.00000078  00000-0  10023-3 0  9992
2 67239  50.0043 157.1404 0000303 301.6457  58.4385 13.29326593 35166

Acompanhe HULIANWANG DIGUI-131 em tempo real com AllMySat

Download on the App Store